Temp
1 1 1 1 0 -0 -0 -1 -1 -0 -1 -0 0 0 0 0 1 1 1 1 1 1 1 1 1 1 1 1 1 2 2 1 1 1 1 1 1 2 2 2 1 1 1
1 1 1 0 -0 -1 -1 -2 -2 -1 -1 -1 -0 -0 -0 0 0 0 -0 0 0 0 0 1 1 1 1 1 1 1 1 2 1 0 1 1 1 1 1 2 2 1 1
1 0 -0 -1 -1 -1 -2 -2 -2 -2 -2 -2 -1 -1 -1 -1 -1 -1 -1 -1 -1 -0 -0 -0 -1 -0 0 0 1 0 0 1 1 1 -0 -0 0 1 1 1 1 1 1
-0 -0 -2 -1 -1 -2 -2 -2 -2 -2 -2 -2 -2 -2 -2 -2 -2 -2 -2 -2 -2 -2 -2 -2 -2 -2 -1 -1 -0 0 0 -0 0 0 1 0 -1 -1 -0 0 1 1 1
-1 -1 -2 -2 -2 -2 -2 -2 -2 -2 -2 -2 -2 -2 -2 -2 -3 -3 -3 -3 -3 -3 -3 -3 -3 -3 -3 -2 -2 -1 -1 -0 -1 -1 -1 0 0 -1 -1 -1 -0 -0 0
-1 -1 -1 -1 -2 -2 -2 -2 -2 -2 -3 -2 -2 -2 -2 -3 -3 -3 -4 -4 -4 -4 -4 -4 -4 -3 -3 -4 -3 -3 -2 -1 -1 -1 -2 -2 -1 0 -1 -1 -1 -1 -0
-1 -2 -2 -2 -2 -2 -2 -2 -3 -3 -3 -3 -3 -2 -3 -3 -4 -5 -5 -5 -5 -5 -5 -5 -5 -5 -5 -4 -4 -4 -3 -3 -3 -2 -2 -2 -2 -2 -1 -2 -3 -2 -1
-2 -1 -2 -2 -2 -3 -3 -3 -3 -3 -3 -3 -4 -4 -4 -5 -5 -6 -7 -7 -7 -7 -7 -7 -7 -7 -7 -6 -6 -5 -5 -5 -4 -4 -3 -3 -3 -3 -3 -2 -2 -2 -2
-1 -2 -2 -3 -3 -3 -4 -4 -4 -5 -5 -6 -7 -8 -8 -8 -8 -8 -8 -8 -8 -8 -8 -8 -8 -8 -8 -8 -7 -7 -6 -6 -5 -5 -4 -4 -4 -4 -3 -3 -2 -2 -2
-2 -2 -2 -3 -4 -5 -5 -6 -6 -7 -7 -8 -9 -10 -10 -10 -11 -10 -10 -10 -10 -9 -9 -9 -9 -8 -8 -8 -8 -8 -8 -7 -7 -6 -5 -5 -4 -4 -4 -4 -3 -2 -2
-3 -4 -5 -5 -6 -6 -7 -7 -7 -8 -9 -10 -11 -11 -11 -11 -11 -11 -11 -11 -10 -10 -10 -11 -11 -10 -11 -11 -11 -11 -10 -10 -9 -8 -7 -6 -5 -5 -5 -4 -4 -4 -3
-4 -5 -5 -5 -6 -6 -7 -8 -10 -10 -11 -12 -12 -12 -12 -12 -12 -12 -12 -12 -11 -11 -12 -12 -12 -13 -13 -13 -13 -13 -12 -12 -11 -11 -9 -8 -6 -6 -5 -5 -5 -4 -4
-4 -5 -6 -7 -8 -8 -10 -11 -11 -12 -12 -12 -12 -12 -12 -13 -13 -13 -14 -14 -14 -13 -13 -13 -13 -14 -14 -15 -14 -14 -13 -13 -12 -12 -11 -10 -9 -7 -6 -5 -5 -5 -4
-6 -7 -7 -8 -8 -9 -10 -11 -12 -12 -13 -13 -13 -13 -14 -14 -14 -15 -15 -15 -15 -14 -14 -14 -14 -14 -15 -15 -15 -14 -14 -14 -13 -13 -13 -12 -11 -10 -9 -7 -6 -6 -5
-7 -7 -8 -8 -9 -10 -11 -12 -13 -13 -14 -14 -14 -14 -14 -15 -15 -15 -15 -16 -16 -15 -15 -14 -14 -15 -15 -15 -15 -15 -15 -14 -14 -14 -13 -13 -12 -12 -11 -10 -8 -7 -6
-7 -8 -9 -10 -11 -12 -12 -13 -13 -14 -14 -14 -15 -15 -15 -15 -15 -16 -16 -16 -17 -16 -16 -16 -15 -15 -15 -15 -15 -15 -15 -15 -14 -14 -14 -13 -13 -12 -12 -11 -10 -9 -8
-9 -9 -10 -11 -12 -12 -12 -13 -14 -14 -14 -15 -15 -15 -15 -15 -15 -16 -16 -16 -16 -17 -17 -15 -16 -16 -16 -16 -16 -16 -16 -15 -15 -14 -14 -14 -13 -13 -12 -12 -11 -10 -9
-9 -10 -10 -11 -12 -12 -13 -14 -14 -14 -15 -15 -15 -15 -15 -16 -16 -16 -16 -16 -17 -17 -17 -16 -16 -16 -16 -16 -16 -16 -17 -16 -16 -15 -15 -14 -14 -13 -13 -12 -12 -11 -11
-10 -10 -11 -12 -12 -13 -14 -15 -15 -15 -15 -15 -15 -15 -16 -16 -16 -16 -16 -16 -17 -17 -17 -17 -16 -17 -17 -17 -17 -17 -17 -17 -17 -16 -16 -15 -14 -14 -13 -13 -13 -12 -11
-11 -12 -12 -13 -13 -13 -14 -15 -15 -15 -16 -16 -16 -16 -16 -16 -16 -16 -16 -16 -17 -17 -18 -18 -18 -18 -19 -19 -19 -19 -18 -19 -18 -17 -17 -16 -15 -14 -13 -13 -13 -12 -12
-12 -12 -13 -13 -14 -14 -15 -15 -16 -16 -16 -16 -16 -16 -16 -16 -16 -16 -17 -17 -17 -18 -18 -19 -19 -19 -19 -20 -20 -20 -20 -19 -19 -18 -18 -17 -16 -15 -14 -13 -13 -13 -12
-12 -13 -13 -14 -14 -15 -15 -16 -16 -16 -16 -16 -16 -16 -16 -16 -16 -16 -17 -17 -18 -18 -19 -19 -20 -21 -21 -21 -21 -20 -20 -19 -19 -19 -18 -18 -17 -16 -15 -14 -13 -13 -13
-13 -13 -14 -14 -14 -15 -16 -16 -16 -16 -16 -16 -16 -16 -16 -16 -16 -17 -17 -17 -18 -19 -19 -20 -20 -21 -21 -21 -21 -21 -21 -20 -20 -20 -19 -18 -18 -17 -16 -16 -14 -13 -13
-13 -14 -14 -15 -15 -15 -16 -16 -16 -16 -16 -16 -16 -16 -16 -16 -17 -17 -17 -18 -18 -19 -20 -21 -21 -21 -21 -21 -21 -21 -21 -21 -20 -20 -20 -19 -18 -18 -17 -16 -15 -14 -13
-14 -14 -15 -15 -15 -16 -16 -16 -16 -16 -16 -17 -17 -17 -17 -17 -17 -17 -18 -18 -18 -19 -20 -20 -21 -21 -21 -21 -21 -21 -21 -21 -20 -20 -20 -19 -18 -18 -17 -16 -16 -16 -14
-14 -15 -15 -15 -15 -16 -16 -16 -16 -16 -16 -17 -17 -17 -17 -17 -17 -18 -18 -18 -18 -19 -19 -20 -20 -21 -21 -21 -20 -20 -21 -21 -21 -21 -20 -19 -18 -18 -18 -17 -16 -16 -16
Height
3184 3182 3180 3179 3178 3176 3173 3171 3168 3165 3162 3159 3156 3154 3152 3150 3148 3147 3146 3144 3142 3140 3139 3137 3135 3135 3134 3132 3132 3133 3131 3129 3128 3129 3129 3128 3130 3132 3133 3135 3136 3137 3138
3180 3179 3177 3175 3173 3171 3168 3165 3162 3159 3156 3153 3150 3147 3144 3141 3138 3137 3137 3136 3134 3133 3132 3130 3128 3126 3125 3125 3124 3123 3123 3124 3121 3120 3121 3123 3122 3124 3126 3127 3130 3132 3133
3177 3175 3173 3170 3167 3164 3161 3158 3154 3151 3147 3144 3142 3139 3137 3134 3130 3127 3125 3124 3123 3122 3121 3120 3119 3118 3116 3115 3115 3114 3113 3113 3115 3114 3112 3112 3113 3115 3117 3119 3121 3125 3127
3173 3171 3167 3164 3162 3158 3155 3152 3148 3143 3139 3135 3132 3129 3126 3124 3120 3117 3113 3112 3111 3109 3108 3107 3106 3106 3105 3105 3104 3104 3104 3103 3103 3104 3105 3104 3105 3106 3107 3108 3113 3116 3119
3168 3166 3162 3158 3155 3152 3148 3143 3138 3133 3128 3124 3120 3117 3116 3114 3110 3107 3104 3101 3098 3096 3094 3093 3092 3092 3092 3092 3093 3093 3092 3092 3092 3092 3093 3096 3096 3097 3098 3099 3104 3107 3110
3164 3161 3156 3152 3147 3143 3138 3133 3129 3124 3119 3113 3109 3105 3102 3099 3098 3096 3094 3091 3087 3084 3082 3079 3078 3077 3077 3077 3078 3079 3080 3080 3080 3081 3082 3084 3086 3088 3089 3091 3094 3097 3101
3157 3154 3148 3144 3139 3134 3129 3123 3118 3113 3107 3102 3097 3094 3090 3088 3085 3081 3080 3077 3074 3071 3068 3066 3064 3062 3061 3062 3062 3062 3064 3065 3066 3068 3070 3072 3075 3078 3081 3083 3085 3086 3089
3149 3144 3139 3133 3128 3121 3115 3110 3105 3101 3097 3091 3086 3081 3077 3076 3072 3070 3066 3063 3059 3057 3054 3051 3048 3046 3044 3045 3047 3048 3047 3049 3051 3054 3056 3058 3062 3065 3069 3072 3074 3076 3079
3139 3134 3129 3123 3117 3111 3106 3100 3095 3090 3085 3080 3076 3071 3064 3060 3055 3056 3055 3051 3048 3045 3042 3038 3035 3032 3029 3027 3028 3031 3033 3033 3035 3037 3041 3043 3046 3050 3054 3058 3061 3065 3067
3129 3123 3118 3112 3106 3100 3095 3089 3084 3079 3073 3068 3064 3061 3056 3049 3043 3038 3037 3034 3035 3034 3029 3026 3023 3020 3016 3014 3011 3012 3014 3016 3019 3021 3023 3026 3030 3033 3038 3043 3047 3051 3055
3119 3112 3107 3102 3096 3089 3083 3077 3071 3065 3060 3055 3051 3047 3044 3039 3034 3028 3023 3023 3020 3017 3013 3010 3008 3004 3002 3000 2998 2997 2998 2999 3001 3003 3006 3010 3013 3017 3021 3027 3032 3037 3042
3110 3104 3098 3092 3086 3079 3072 3065 3059 3053 3049 3045 3041 3036 3033 3029 3025 3019 3013 3009 3009 3009 3003 2999 2995 2992 2990 2989 2988 2986 2985 2986 2988 2988 2990 2993 2997 3000 3004 3011 3017 3023 3030
3101 3094 3087 3080 3073 3066 3061 3055 3050 3046 3042 3038 3034 3030 3025 3021 3016 3011 3005 3001 2997 2998 2995 2991 2987 2985 2982 2979 2979 2977 2975 2975 2976 2976 2977 2979 2981 2984 2989 2994 3001 3008 3014
3089 3082 3076 3070 3064 3058 3053 3047 3043 3038 3034 3029 3025 3021 3017 3013 3008 3004 2999 2993 2988 2984 2983 2979 2978 2975 2973 2970 2968 2968 2967 2967 2966 2967 2968 2969 2970 2971 2974 2979 2986 2993 3000
3080 3074 3068 3061 3055 3049 3044 3039 3035 3030 3026 3022 3019 3015 3011 3006 3001 2996 2991 2985 2979 2971 2968 2969 2965 2964 2960 2958 2957 2956 2956 2957 2957 2957 2958 2959 2961 2962 2964 2967 2971 2977 2984
3071 3064 3057 3051 3045 3040 3034 3030 3026 3022 3019 3015 3011 3007 3002 2998 2993 2988 2983 2978 2972 2966 2954 2957 2953 2950 2948 2944 2944 2943 2944 2945 2946 2947 2948 2949 2951 2954 2955 2957 2959 2964 2970
3060 3054 3047 3041 3035 3030 3026 3022 3019 3015 3012 3008 3005 2999 2994 2989 2984 2979 2974 2968 2962 2956 2947 2944 2941 2937 2935 2931 2929 2930 2931 2933 2934 2936 2939 2940 2941 2945 2947 2949 2951 2954 2959
3052 3045 3038 3032 3027 3022 3019 3016 3012 3009 3006 3002 2997 2991 2986 2980 2975 2970 2963 2957 2950 2944 2937 2932 2931 2927 2923 2921 2917 2917 2919 2921 2923 2925 2927 2930 2932 2935 2938 2942 2944 2947 2950
3044 3037 3030 3025 3020 3015 3011 3008 3005 3002 2999 2994 2989 2983 2977 2972 2967 2960 2953 2946 2939 2934 2928 2922 2919 2916 2912 2910 2908 2907 2907 2910 2912 2914 2917 2919 2922 2926 2929 2933 2937 2940 2944
3034 3028 3022 3017 3012 3009 3005 3002 2999 2996 2991 2987 2981 2975 2970 2964 2957 2950 2942 2936 2930 2924 2919 2913 2909 2905 2902 2901 2899 2898 2899 2901 2903 2905 2907 2910 2913 2916 2921 2925 2929 2932 2936
3027 3020 3015 3010 3005 3002 2999 2995 2992 2988 2984 2978 2973 2968 2962 2955 2948 2940 2932 2927 2921 2915 2910 2904 2900 2896 2894 2893 2891 2891 2891 2893 2895 2896 2899 2901 2903 2907 2910 2916 2921 2925 2929
3020 3014 3008 3003 2999 2995 2991 2988 2986 2981 2976 2971 2965 2960 2954 2947 2939 2932 2926 2920 2913 2907 2902 2897 2893 2890 2888 2887 2885 2884 2885 2886 2888 2890 2892 2894 2895 2898 2902 2906 2913 2918 2922
3012 3007 3001 2997 2992 2989 2985 2982 2979 2975 2969 2964 2958 2952 2946 2938 2930 2923 2918 2912 2907 2901 2895 2890 2886 2883 2881 2880 2878 2878 2879 2880 2881 2884 2884 2887 2889 2891 2895 2900 2905 2913 2917
3005 3000 2995 2990 2986 2983 2979 2976 2973 2968 2964 2958 2952 2945 2938 2931 2923 2917 2911 2906 2900 2895 2889 2884 2880 2877 2875 2873 2872 2872 2873 2873 2875 2877 2878 2880 2883 2886 2888 2893 2899 2905 2912
2998 2993 2989 2984 2981 2977 2974 2971 2967 2963 2958 2953 2946 2938 2931 2925 2918 2911 2906 2901 2895 2889 2883 2878 2874 2871 2869 2867 2866 2866 2868 2869 2870 2872 2872 2874 2877 2879 2882 2886 2892 2898 2903
2992 2987 2983 2979 2976 2972 2969 2965 2961 2957 2952 2947 2941 2933 2927 2920 2913 2908 2902 2897 2891 2885 2878 2873 2870 2867 2865 2863 2862 2862 2863 2864 2866 2867 2868 2869 2871 2874 2878 2881 2885 2891 2898
Wind_Speed
12 14 16 19 23 25 27 28 28 31 36 37 35 34 35 35 33 32 31 32 32 32 32 33 34 33 34 35 34 33 34 34 34 34 36 34 32 31 30 28 27 26 27
14 16 19 24 26 28 30 33 34 35 38 40 40 40 40 41 41 40 38 38 38 37 37 37 37 38 38 38 40 40 38 37 38 37 36 36 37 36 34 33 31 30 29
18 20 23 25 30 35 34 37 37 44 43 44 46 46 45 44 46 46 46 44 43 43 42 41 41 41 42 42 41 41 42 43 39 41 38 38 38 39 38 36 35 34 34
22 25 29 31 33 39 36 38 39 45 47 49 50 51 51 51 51 49 49 48 46 44 43 43 42 42 43 44 45 45 45 44 46 44 43 42 39 38 40 40 39 38 37
25 30 34 31 32 36 40 44 46 49 51 53 55 56 55 52 48 47 48 48 48 48 49 48 46 45 45 46 47 48 49 49 48 47 47 45 45 42 40 41 43 41 41
27 30 32 35 37 41 43 46 49 50 53 56 56 54 54 52 51 52 51 50 50 50 51 52 53 52 49 48 50 51 52 53 54 52 48 47 47 46 44 43 44 44 43
28 32 35 37 40 42 44 46 45 48 52 55 57 58 58 56 56 56 55 55 55 55 55 55 55 53 53 52 52 53 54 56 56 57 56 51 48 46 47 45 42 44 44
35 37 41 44 46 48 49 52 54 56 56 56 57 57 57 56 57 54 53 52 52 50 50 51 52 52 52 52 52 53 54 55 57 57 59 57 53 51 48 49 46 43 45
41 42 45 46 48 50 51 53 54 53 53 53 51 51 51 50 50 45 41 40 42 43 45 49 52 53 54 54 53 54 54 54 55 56 56 57 56 54 52 50 51 49 44
43 45 46 47 48 49 50 50 51 50 49 49 46 43 39 41 42 45 44 41 38 38 42 44 45 46 48 50 54 55 53 54 55 55 56 57 57 56 54 54 52 51 51
43 45 45 45 46 47 48 47 46 45 45 45 44 42 39 40 41 44 47 44 42 42 44 45 45 40 38 38 39 45 48 46 49 52 55 56 57 57 56 55 55 53 53
43 45 46 47 46 45 45 45 44 44 43 42 40 38 36 38 40 43 43 44 44 39 38 39 38 35 34 33 34 34 34 38 41 41 45 51 56 57 58 57 57 57 55
44 44 45 45 44 44 41 43 46 45 46 42 35 33 35 36 38 39 37 38 40 37 37 36 37 36 34 36 34 33 32 34 35 34 35 40 47 54 58 60 58 58 59
45 45 44 44 43 42 43 43 45 39 37 37 36 34 33 38 36 35 38 41 43 43 42 40 37 36 33 32 38 34 34 31 34 34 33 32 35 40 48 56 59 58 59
44 44 44 44 42 39 37 36 32 28 30 28 30 34 36 35 36 37 37 39 41 46 47 42 43 41 40 37 35 35 40 38 36 36 34 32 30 31 34 41 49 55 58
44 44 44 42 39 36 33 30 26 28 28 30 32 37 37 37 36 35 36 38 41 45 52 46 45 43 41 41 38 37 37 38 41 39 38 35 32 29 29 30 38 45 50
45 44 43 40 36 34 31 26 26 28 29 33 37 39 38 37 36 36 38 41 44 45 49 46 45 43 40 41 40 37 35 37 38 42 39 36 34 31 28 27 26 33 40
45 44 41 37 34 31 26 26 27 28 31 35 38 38 38 37 37 39 42 44 46 44 44 42 38 37 37 35 37 36 34 34 37 37 41 40 38 36 31 28 26 24 30
45 43 39 35 31 28 27 29 26 30 32 36 37 38 37 38 38 41 44 44 41 38 39 40 39 36 35 33 33 32 32 31 34 34 35 38 42 37 36 30 26 25 23
45 42 37 33 30 26 26 28 29 31 34 34 35 35 36 37 40 43 41 36 36 38 37 37 35 33 30 29 28 26 26 26 27 31 32 34 36 38 39 36 28 25 22
42 40 36 32 28 25 26 27 29 30 31 33 32 33 35 37 40 38 34 34 36 36 34 33 32 30 27 24 25 24 22 20 21 25 28 31 32 34 37 40 33 25 23
40 38 35 31 28 26 24 26 28 29 30 30 32 33 35 37 38 33 31 33 34 33 31 30 29 25 23 22 22 21 19 23 21 22 24 28 31 33 32 34 32 27 24
38 36 33 30 27 25 24 25 26 28 28 29 32 34 35 36 36 32 31 32 30 28 28 27 27 26 26 22 20 17 19 19 22 22 24 27 28 28 29 28 26 27 24
36 33 30 27 25 24 24 24 25 26 26 30 32 34 34 36 34 31 31 29 27 26 26 24 22 21 21 21 20 15 17 26 23 25 24 25 24 23 24 25 23 26 31
33 30 27 25 24 24 22 24 24 24 26 29 31 32 34 35 32 29 27 27 28 26 25 23 21 19 18 16 17 16 15 14 24 28 27 23 20 22 23 24 26 25 32
31 29 26 24 24 22 22 23 24 25 27 28 29 30 32 32 28 25 25 26 27 26 24 19 14 13 12 11 12 14 15 15 12 13 14 17 18 19 20 22 26 27 25
Wind_Direction
302 310 313 316 311 308 310 310 309 311 316 320 320 318 317 315 311 307 302 297 295 293 290 289 287 283 281 283 282 275 272 275 273 268 265 260 255 251 249 246 245 244 242
298 303 307 309 308 306 310 309 306 308 312 311 311 312 311 310 308 305 301 298 294 290 284 282 282 282 281 278 278 277 273 266 269 270 268 265 261 255 252 250 247 243 243
297 298 298 305 306 319 309 314 301 307 308 307 306 305 305 304 304 302 298 295 294 292 286 281 278 277 275 275 274 271 271 272 264 265 267 266 265 262 257 252 249 246 241
298 294 303 298 303 312 303 304 293 300 302 301 301 302 304 304 302 300 298 295 294 289 285 281 276 272 269 268 268 267 267 266 267 265 260 263 263 263 260 256 251 247 244
304 315 309 312 303 305 300 299 299 298 300 300 299 298 297 296 293 296 297 293 291 290 288 283 278 273 270 267 264 262 262 263 263 262 263 256 258 260 259 257 252 248 244
306 304 305 307 301 297 297 297 296 295 295 296 296 297 301 299 295 296 297 292 287 286 286 284 281 278 274 269 265 262 260 260 260 261 258 258 255 254 256 258 254 250 246
301 299 299 298 299 300 299 299 300 300 301 303 302 300 299 297 295 295 296 292 289 287 286 283 281 279 275 271 267 265 261 258 257 258 259 255 252 253 251 251 256 254 249
309 308 309 310 309 309 308 308 307 306 305 304 303 301 299 297 292 294 294 293 290 289 287 285 283 279 275 271 268 264 263 261 258 256 256 257 253 250 250 249 248 252 252
314 312 312 311 309 309 308 306 305 304 302 300 299 300 301 299 300 296 290 284 284 282 281 280 279 279 279 277 273 266 263 262 260 258 255 254 255 252 249 247 247 246 249
314 313 312 312 309 307 305 304 302 301 299 298 300 304 303 300 299 299 299 295 291 286 281 277 276 276 274 275 275 272 265 261 260 258 256 255 253 254 251 248 246 246 245
313 312 312 310 308 306 306 306 305 304 304 306 307 306 304 300 299 299 299 294 295 296 293 290 286 278 280 280 279 274 270 263 259 256 254 253 254 252 251 249 247 243 244
315 313 311 309 310 310 310 310 311 310 310 311 311 306 305 303 299 296 297 295 289 288 293 292 291 291 289 289 288 285 277 272 265 262 258 251 249 251 251 248 247 246 242
315 314 315 317 317 315 312 307 309 307 306 306 306 300 299 296 302 303 302 301 300 297 292 290 292 291 284 281 281 279 274 272 268 264 260 257 253 247 247 247 245 243 243
321 320 319 318 315 312 306 302 302 306 305 299 297 299 304 306 307 305 303 301 300 299 296 297 295 290 286 279 274 269 265 270 269 268 265 259 254 253 249 245 243 242 241
321 320 319 316 314 309 306 303 306 302 302 302 303 306 308 308 306 304 302 302 303 302 299 299 297 295 291 284 274 269 263 262 264 265 264 260 255 252 253 250 243 239 238
323 322 321 319 315 309 309 307 306 300 303 305 307 309 309 307 304 303 302 301 299 299 298 300 297 294 290 286 279 270 262 259 256 258 259 258 254 249 248 252 248 241 237
325 324 322 319 314 311 310 304 303 302 303 300 305 307 308 306 307 307 305 303 301 299 297 297 296 294 289 284 279 273 265 257 255 252 254 253 252 248 249 252 255 247 239
325 323 321 317 313 307 305 300 300 300 295 299 304 307 308 309 310 309 307 305 302 300 297 299 299 296 292 286 279 273 265 259 253 252 249 251 252 252 250 252 255 258 239
325 324 320 315 312 308 298 302 299 298 295 302 305 308 310 312 312 311 308 306 304 302 301 301 300 296 291 286 281 275 265 259 254 251 250 249 249 252 253 250 255 255 252
326 325 322 317 312 304 292 291 299 296 302 304 308 309 312 314 313 311 309 307 306 306 305 302 302 298 291 286 281 281 267 259 259 251 248 249 250 252 253 252 255 261 255
325 325 322 317 313 304 296 297 300 304 305 308 309 314 316 316 315 314 311 311 310 309 307 304 303 300 296 288 280 270 263 252 250 253 248 247 248 248 249 247 250 259 257
324 323 320 316 312 308 304 302 305 310 310 312 316 317 319 319 321 317 314 314 314 312 309 304 300 294 294 292 288 277 262 234 241 259 246 243 245 247 246 246 245 245 257
322 320 319 315 312 309 308 310 311 311 316 318 318 320 322 325 326 321 319 318 316 311 309 305 299 295 290 292 284 280 250 247 242 245 245 240 242 245 247 246 242 229 228
319 317 317 316 316 314 313 312 314 318 320 321 322 323 328 331 328 323 323 325 323 319 315 307 301 299 292 289 281 269 266 239 235 241 257 246 240 243 240 235 230 216 208
317 317 317 317 316 314 313 316 320 321 323 324 326 330 332 332 329 327 329 330 326 328 323 310 301 300 298 293 277 256 254 264 249 253 254 248 235 233 234 229 221 215 220
317 317 316 316 314 313 315 321 322 324 325 329 332 334 334 334 332 330 332 334 334 335 334 329 315 306 311 307 285 262 245 247 236 257 249 241 233 229 229 227 223 217 210